User: anonymous   Login
Location: Ladrillo (historical)
(32.8195°N, 117.2231°W)
Time: 03:09:01
(UTC+00:00)
Language:

Cosmos 1300 - Orbit

View from above orbital plane
View from above orbital plane
View from above satellite
View from above satellite

Ground track
Ground track

The orbit data is extracted from the following two-line orbital elements,

1 12785U 81082A   21018.79529039  .00000341  00000-0  15214-4 0  9993
2 12785  82.5017 215.3489 0002126  55.1586 315.3210 15.17919134150519
Epoch (UTC): 18 January 2021 19:05:13
Eccentricity: 0.0002126
inclination: 82.5017°
perigee height: 510 km
apogee height: 513 km
right ascension of ascending node: 215.3489°
argument of perigee: 55.1586°
revolutions per day: 15.17919134
mean anomaly at epoch: 315.3210°
orbit number at epoch: 15051

The dashed part of the orbit path shows where the satellite is in the earth's shadow,  

DLR